| time (UTC) | temp F | wind direction | speed MPH | gust MPH | rain 1hr in | rain 24hr in | rain mn in | humidity % | barometer mb |
| 20260509063127 | 74 | 39 | 0.0 | 0.0 | 0.00 | 0.00 | 0.00 | 18 | 1006.5 |
| 20260509062749 | 74 | 353 | 0.0 | 0.0 | 0.00 | 0.00 | 0.00 | 18 | 1006.5 |
| 20260509062237 | 74 | 350 | 0.0 | 0.0 | 0.00 | 0.00 | 0.00 | 18 | 1006.5 |
| 20260509061754 | 75 | 354 | 0.0 | 0.0 | 0.00 | 0.00 | 0.00 | 18 | 1006.5 |
| 20260509061242 | 74 | 317 | 0.0 | 0.0 | 0.00 | 0.00 | 0.00 | 18 | 1006.4 |
| 20260509060740 | 74 | 344 | 0.0 | 0.0 | 0.00 | 0.00 | 0.00 | 18 | 1006.4 |
| 20260509060237 | 74 | 344 | 0.0 | 0.0 | 0.00 | 0.00 | 0.00 | 18 | 1006.4 |
| 20260509060141 | 73 | 24 | 0.0 | 0.0 | 0.00 | 0.00 | 0.00 | 18 | 1006.4 |
| 20260509055737 | 73 | 337 | 0.0 | 0.0 | 0.00 | 0.00 | 0.00 | 18 | 1006.2 |
| 20260509054749 | 74 | 338 | 0.0 | 0.0 | 0.00 | 0.00 | 0.00 | 18 | 1006.2 |
| 20260509053237 | 74 | 305 | 0.0 | 0.0 | 0.00 | 0.00 | 0.00 | 20 | 1006.2 |
| 20260509053140 | 74 | 351 | 0.0 | 0.0 | 0.00 | 0.00 | 0.00 | 20 | 1006.2 |
| 20260509052744 | 74 | 18 | 0.0 | 0.0 | 0.00 | 0.00 | 0.00 | 21 | 1006.3 |
| 20260509052252 | 74 | 34 | 0.0 | 0.0 | 0.00 | 0.00 | 0.00 | 21 | 1006.3 |
| 20260509051744 | 74 | 344 | 0.0 | 0.0 | 0.00 | 0.00 | 0.00 | 21 | 1006.3 |
| 20260509051235 | 74 | 348 | 0.0 | 0.0 | 0.00 | 0.00 | 0.00 | 21 | 1006.3 |
| 20260509050744 | 74 | 338 | 0.0 | 0.0 | 0.00 | 0.00 | 0.00 | 21 | 1006.3 |
| 20260509050240 | 74 | 48 | 0.0 | 0.0 | 0.00 | 0.00 | 0.00 | 21 | 1006.3 |
| 20260509050144 | 74 | 4 | 0.0 | 0.0 | 0.00 | 0.00 | 0.00 | 20 | 1006.3 |
| 20260509045744 | 75 | 331 | 0.0 | 0.0 | 0.00 | 0.00 | 0.00 | 21 | 1006.3 |
| 20260509045254 | 75 | 22 | 0.0 | 0.0 | 0.00 | 0.00 | 0.00 | 21 | 1006.3 |
| 20260509044747 | 74 | 17 | 0.0 | 0.0 | 0.00 | 0.00 | 0.00 | 22 | 1006.3 |
| 20260509044237 | 74 | 39 | 0.0 | 0.0 | 0.00 | 0.00 | 0.00 | 21 | 1006.4 |
| 20260509043747 | 74 | 17 | 0.0 | 0.0 | 0.00 | 0.00 | 0.00 | 22 | 1006.4 |
| 20260509043137 | 74 | 10 | 0.0 | 0.0 | 0.00 | 0.00 | 0.00 | 22 | 1006.4 |
| 20260509042741 | 73 | 355 | 0.0 | 0.0 | 0.00 | 0.00 | 0.00 | 21 | 1006.2 |
| 20260509042247 | 74 | 314 | 0.0 | 0.0 | 0.00 | 0.00 | 0.00 | 22 | 1006.2 |
| 20260509041741 | 74 | 322 | 0.0 | 0.0 | 0.00 | 0.00 | 0.00 | 21 | 1006.2 |
| 20260509040752 | 73 | 351 | 0.0 | 0.0 | 0.00 | 0.00 | 0.00 | 23 | 1006.4 |
| 20260509040250 | 73 | 46 | 0.0 | 0.0 | 0.00 | 0.00 | 0.00 | 24 | 1006.4 |
| 20260509040134 | 73 | 45 | 0.0 | 0.0 | 0.00 | 0.00 | 0.00 | 24 | 1006.4 |
| 20260509035754 | 73 | 340 | 0.0 | 0.0 | 0.00 | 0.00 | 0.00 | 24 | 1006.5 |
| 20260509034742 | 72 | 29 | 0.0 | 0.0 | 0.00 | 0.00 | 0.00 | 24 | 1006.5 |
| 20260509034251 | 73 | 36 | 0.0 | 0.0 | 0.00 | 0.00 | 0.00 | 24 | 1006.4 |
| 20260509033741 | 73 | 58 | 0.0 | 0.0 | 0.00 | 0.00 | 0.00 | 24 | 1006.4 |
| 20260509033128 | 72 | 12 | 0.0 | 0.0 | 0.00 | 0.00 | 0.00 | 26 | 1006.4 |
| 20260509032746 | 72 | 11 | 0.0 | 0.0 | 0.00 | 0.00 | 0.00 | 26 | 1006.3 |
| 20260509031751 | 72 | 35 | 0.0 | 0.0 | 0.00 | 0.00 | 0.00 | 24 | 1006.3 |
| 20260509031248 | 72 | 314 | 0.0 | 0.0 | 0.00 | 0.00 | 0.00 | 23 | 1006.4 |
| 20260509030746 | 72 | 357 | 0.0 | 0.0 | 0.00 | 0.00 | 0.00 | 20 | 1006.4 |
| 20260509030243 | 73 | 312 | 0.0 | 0.0 | 0.00 | 0.00 | 0.00 | 20 | 1006.4 |
| 20260509030127 | 73 | 299 | 0.0 | 0.0 | 0.00 | 0.00 | 0.00 | 20 | 1006.4 |
| 20260509025744 | 72 | 354 | 0.0 | 0.0 | 0.00 | 0.00 | 0.00 | 23 | 1006.5 |
| 20260509025253 | 72 | 10 | 0.0 | 0.0 | 0.00 | 0.00 | 0.00 | 23 | 1006.5 |
| 20260509024746 | 72 | 324 | 0.0 | 0.0 | 0.00 | 0.00 | 0.00 | 24 | 1006.5 |
| 20260509024235 | 72 | 350 | 0.0 | 0.0 | 0.00 | 0.00 | 0.00 | 21 | 1006.4 |
| 20260509023745 | 72 | 347 | 0.0 | 0.0 | 0.00 | 0.00 | 0.00 | 22 | 1006.4 |
| 20260509023241 | 72 | 340 | 0.0 | 0.0 | 0.00 | 0.00 | 0.00 | 22 | 1006.4 |
| 20260509023145 | 72 | 341 | 0.0 | 0.0 | 0.00 | 0.00 | 0.00 | 22 | 1006.4 |
| 20260509022747 | 71 | 322 | 0.0 | 0.0 | 0.00 | 0.00 | 0.00 | 23 | 1006.3 |
| 20260509022238 | 71 | 313 | 0.0 | 0.0 | 0.00 | 0.00 | 0.00 | 21 | 1006.3 |
| 20260509021751 | 71 | 331 | 0.0 | 0.0 | 0.00 | 0.00 | 0.00 | 21 | 1006.3 |
| 20260509021240 | 70 | 333 | 0.0 | 0.0 | 0.00 | 0.00 | 0.00 | 23 | 1006.5 |
| 20260509020736 | 71 | 316 | 0.0 | 0.0 | 0.00 | 0.00 | 0.00 | 22 | 1006.5 |
| 20260509020254 | 70 | 331 | 0.0 | 0.0 | 0.00 | 0.00 | 0.00 | 23 | 1006.5 |
| 20260509015743 | 70 | 303 | 0.0 | 0.0 | 0.00 | 0.00 | 0.00 | 23 | 1006.5 |
| 20260509015254 | 71 | 327 | 0.0 | 0.0 | 0.00 | 0.00 | 0.00 | 23 | 1006.5 |
| 20260509014750 | 71 | 2 | 0.0 | 0.0 | 0.00 | 0.00 | 0.00 | 23 | 1006.5 |
| 20260509014241 | 71 | 331 | 0.0 | 0.0 | 0.00 | 0.00 | 0.00 | 23 | 1006.5 |
| 20260509013754 | 71 | 300 | 0.0 | 0.0 | 0.00 | 0.00 | 0.00 | 23 | 1006.5 |
| 20260509013254 | 71 | 316 | 0.0 | 0.0 | 0.00 | 0.00 | 0.00 | 23 | 1006.5 |
| 20260509013138 | 71 | 337 | 0.0 | 0.0 | 0.00 | 0.00 | 0.00 | 24 | 1006.5 |
| 20260509012739 | 71 | 350 | 0.0 | 0.0 | 0.00 | 0.00 | 0.00 | 24 | 1006.4 |
| 20260509012248 | 71 | 26 | 0.0 | 0.0 | 0.00 | 0.00 | 0.00 | 22 | 1006.4 |
| 20260509011737 | 72 | 343 | 0.0 | 0.0 | 0.00 | 0.00 | 0.00 | 23 | 1006.4 |
| 20260509011247 | 71 | 316 | 0.0 | 0.0 | 0.00 | 0.00 | 0.00 | 23 | 1006.2 |
| 20260509010742 | 70 | 333 | 0.0 | 0.0 | 0.00 | 0.00 | 0.00 | 23 | 1006.2 |
| 20260509010253 | 70 | 302 | 0.0 | 0.0 | 0.00 | 0.00 | 0.00 | 24 | 1006.2 |
| 20260509010137 | 70 | 4 | 0.0 | 0.0 | 0.00 | 0.00 | 0.00 | 24 | 1006.2 |
| 20260509005740 | 70 | 319 | 0.0 | 0.0 | 0.00 | 0.00 | 0.00 | 24 | 1006.0 |
| 20260509005251 | 70 | 343 | 0.0 | 0.0 | 0.00 | 0.00 | 0.00 | 23 | 1006.0 |
| 20260509004743 | 71 | 290 | 0.0 | 0.0 | 0.00 | 0.00 | 0.00 | 22 | 1006.0 |
| 20260509004251 | 71 | 323 | 0.0 | 0.0 | 0.00 | 0.00 | 0.00 | 23 | 1006.0 |
| 20260509003740 | 70 | 351 | 0.0 | 0.0 | 0.00 | 0.00 | 0.00 | 24 | 1006.0 |
| 20260509003237 | 70 | 358 | 0.0 | 0.0 | 0.00 | 0.00 | 0.00 | 25 | 1006.0 |
| 20260509003141 | 70 | 49 | 0.0 | 0.0 | 0.00 | 0.00 | 0.00 | 25 | 1006.0 |
| 20260509002237 | 71 | 350 | 0.0 | 0.0 | 0.00 | 0.00 | 0.00 | 24 | 1005.5 |
| 20260509001747 | 70 | 307 | 0.0 | 0.0 | 0.00 | 0.00 | 0.00 | 25 | 1005.5 |
| 20260509000736 | 69 | 346 | 0.0 | 0.0 | 0.00 | 0.00 | 0.00 | 26 | 1005.5 |
| 20260509000255 | 69 | 36 | 0.0 | 0.0 | 0.00 | 0.00 | 0.00 | 26 | 1005.5 |
| 20260509000140 | 69 | 52 | 0.0 | 0.0 | 0.00 | 0.00 | 0.00 | 26 | 1005.5 |
| 20260508235239 | 68 | 42 | 0.0 | 0.0 | 0.00 | 0.00 | 0.00 | 26 | 1005.5 |
| 20260508234735 | 69 | 19 | 0.0 | 0.0 | 0.00 | 0.00 | 0.00 | 24 | 1005.5 |
| 20260508234245 | 69 | 346 | 0.0 | 0.0 | 0.00 | 0.00 | 0.00 | 24 | 1005.3 |
| 20260508233236 | 69 | 7 | 0.0 | 0.0 | 0.00 | 0.00 | 0.00 | 24 | 1005.3 |
| 20260508233144 | 69 | 346 | 0.0 | 0.0 | 0.00 | 0.00 | 0.00 | 23 | 1005.3 |
| 20260508232743 | 69 | 4 | 0.0 | 0.0 | 0.00 | 0.00 | 0.00 | 23 | 1004.9 |
| 20260508232236 | 69 | 8 | 0.0 | 0.0 | 0.00 | 0.00 | 0.00 | 23 | 1004.9 |
| 20260508231750 | 69 | 341 | 0.0 | 0.0 | 0.00 | 0.00 | 0.00 | 23 | 1004.9 |
| 20260508231241 | 68 | 26 | 0.0 | 0.0 | 0.00 | 0.00 | 0.00 | 23 | 1004.8 |
| 20260508230753 | 68 | 331 | 0.0 | 0.0 | 0.00 | 0.00 | 0.00 | 24 | 1004.8 |
| 20260508230255 | 68 | 317 | 0.0 | 0.0 | 0.00 | 0.00 | 0.00 | 24 | 1004.8 |
| 20260508230139 | 68 | 344 | 0.0 | 0.0 | 0.00 | 0.00 | 0.00 | 24 | 1004.8 |
| 20260508225239 | 67 | 320 | 0.0 | 0.0 | 0.00 | 0.00 | 0.00 | 24 | 1004.6 |
| 20260508224753 | 67 | 319 | 0.0 | 0.0 | 0.00 | 0.00 | 0.00 | 26 | 1004.6 |
| 20260508224244 | 66 | 336 | 0.0 | 0.0 | 0.00 | 0.00 | 0.00 | 26 | 1004.4 |
| 20260508223750 | 67 | 336 | 0.0 | 0.0 | 0.00 | 0.00 | 0.00 | 25 | 1004.5 |
| 20260508222740 | 67 | 26 | 0.0 | 0.0 | 0.00 | 0.00 | 0.00 | 26 | 1004.2 |
| 20260508222251 | 67 | 11 | 0.0 | 0.0 | 0.00 | 0.00 | 0.00 | 26 | 1004.2 |
| 20260508221745 | 67 | 12 | 0.0 | 0.0 | 0.00 | 0.00 | 0.00 | 27 | 1004.2 |
| 20260508220735 | 66 | 25 | 0.0 | 0.0 | 0.00 | 0.00 | 0.00 | 27 | 1003.8 |
| 20260508220254 | 66 | 26 | 0.0 | 0.0 | 0.00 | 0.00 | 0.00 | 28 | 1003.8 |
| 20260508220138 | 65 | 26 | 0.0 | 0.0 | 0.00 | 0.00 | 0.00 | 27 | 1003.8 |
| 20260508215736 | 65 | 25 | 0.0 | 0.0 | 0.00 | 0.00 | 0.00 | 28 | 1003.5 |
| 20260508215246 | 65 | 26 | 0.0 | 0.0 | 0.00 | 0.00 | 0.00 | 28 | 1003.5 |
| 20260508214740 | 64 | 26 | 0.0 | 0.0 | 0.00 | 0.00 | 0.00 | 29 | 1003.5 |
| 20260508214253 | 63 | 26 | 0.0 | 0.0 | 0.00 | 0.00 | 0.00 | 33 | 1003.3 |
| 20260508213743 | 62 | 26 | 0.0 | 0.0 | 0.00 | 0.00 | 0.00 | 34 | 1003.3 |
| 20260508213241 | 61 | 337 | 0.0 | 0.0 | 0.00 | 0.00 | 0.00 | 38 | 1003.3 |
| 20260508213146 | 61 | 337 | 0.0 | 0.0 | 0.00 | 0.00 | 0.00 | 38 | 1003.3 |
| 20260508212751 | 60 | 338 | 0.0 | 0.0 | 0.00 | 0.00 | 0.00 | 41 | 1003.1 |
| 20260508211742 | 59 | 338 | 0.0 | 0.0 | 0.00 | 0.00 | 0.00 | 46 | 1003.1 |
| 20260508211238 | 59 | 337 | 0.0 | 0.0 | 0.00 | 0.00 | 0.00 | 47 | 1002.8 |
| 20260508210739 | 59 | 337 | 0.0 | 0.0 | 0.00 | 0.00 | 0.00 | 49 | 1002.8 |
| 20260508210300 | 59 | 337 | 0.0 | 0.0 | 0.00 | 0.00 | 0.00 | 56 | 1002.8 |
| 20260508205748 | 59 | 337 | 0.0 | 0.0 | 0.00 | 0.00 | 0.00 | 59 | 1002.4 |
| 20260508205239 | 59 | 337 | 0.0 | 0.0 | 0.00 | 0.00 | 0.00 | 61 | 1002.4 |
| 20260508204752 | 59 | 337 | 0.0 | 0.0 | 0.00 | 0.00 | 0.00 | 61 | 1002.4 |
| 20260508204243 | 59 | 337 | 0.0 | 0.0 | 0.00 | 0.00 | 0.00 | 61 | 1002.2 |
| 20260508203255 | 59 | 337 | 0.0 | 0.0 | 0.00 | 0.00 | 0.00 | 62 | 1002.2 |
| 20260508203139 | 59 | 337 | 0.0 | 0.0 | 0.00 | 0.00 | 0.00 | 62 | 1002.2 |
| 20260508202741 | 59 | 337 | 0.0 | 0.0 | 0.00 | 0.00 | 0.00 | 62 | 1001.8 |
| 20260508202252 | 59 | 337 | 0.0 | 0.0 | 0.00 | 0.00 | 0.00 | 64 | 1001.8 |
| 20260508201240 | 59 | 337 | 0.0 | 0.0 | 0.00 | 0.00 | 0.00 | 63 | 1001.6 |
| 20260508200238 | 59 | 337 | 0.0 | 0.0 | 0.00 | 0.00 | 0.00 | 62 | 1001.6 |
| 20260508200142 | 59 | 337 | 0.0 | 0.0 | 0.00 | 0.00 | 0.00 | 62 | 1001.6 |
| 20260508195241 | 59 | 337 | 0.0 | 0.0 | 0.00 | 0.00 | 0.00 | 62 | 1001.3 |
| 20260508194253 | 59 | 338 | 0.0 | 0.0 | 0.00 | 0.00 | 0.00 | 61 | 1000.9 |
| 20260508193743 | 60 | 338 | 0.0 | 0.0 | 0.00 | 0.00 | 0.00 | 60 | 1000.9 |
| 20260508193238 | 60 | 338 | 0.0 | 0.0 | 0.00 | 0.00 | 0.00 | 61 | 1000.9 |
| 20260508193145 | 60 | 72 | 0.0 | 0.0 | 0.00 | 0.00 | 0.00 | 61 | 1000.9 |
| 20260508192745 | 60 | 15 | 0.0 | 0.0 | 0.00 | 0.00 | 0.00 | 60 | 1000.8 |
| 20260508192234 | 60 | 19 | 0.0 | 0.0 | 0.00 | 0.00 | 0.00 | 60 | 1000.8 |
| 20260508191750 | 60 | 18 | 0.0 | 0.0 | 0.00 | 0.00 | 0.00 | 60 | 1000.8 |
| 20260508191239 | 60 | 18 | 0.0 | 0.0 | 0.00 | 0.00 | 0.00 | 60 | 1001.0 |
| 20260508190734 | 60 | 19 | 0.0 | 0.0 | 0.00 | 0.00 | 0.00 | 59 | 1001.0 |
| 20260508190144 | 60 | 18 | 0.0 | 0.0 | 0.00 | 0.00 | 0.00 | 59 | 1001.0 |
| 20260508185747 | 60 | 19 | 0.0 | 0.0 | 0.00 | 0.00 | 0.00 | 59 | 1000.7 |
| 20260508185239 | 60 | 18 | 0.0 | 0.0 | 0.00 | 0.00 | 0.00 | 59 | 1000.7 |
| 20260508184739 | 60 | 19 | 0.0 | 0.0 | 0.00 | 0.00 | 0.00 | 58 | 1000.7 |
| 20260508184251 | 60 | 18 | 0.0 | 0.0 | 0.00 | 0.00 | 0.00 | 58 | 1000.5 |
| 20260508183740 | 60 | 18 | 0.0 | 0.0 | 0.00 | 0.00 | 0.00 | 58 | 1000.5 |
| 20260508183236 | 60 | 18 | 0.0 | 0.0 | 0.00 | 0.00 | 0.00 | 57 | 1000.5 |
| 20260508183139 | 60 | 18 | 0.0 | 0.0 | 0.00 | 0.00 | 0.00 | 57 | 1000.5 |
| 20260508182742 | 60 | 18 | 0.0 | 0.0 | 0.00 | 0.00 | 0.00 | 57 | 1000.3 |
| 20260508182253 | 60 | 18 | 0.0 | 0.0 | 0.00 | 0.00 | 0.00 | 56 | 1000.3 |
| 20260508181748 | 60 | 18 | 0.0 | 0.0 | 0.00 | 0.00 | 0.00 | 55 | 1000.3 |
| 20260508181238 | 60 | 29 | 0.0 | 0.0 | 0.00 | 0.00 | 0.00 | 55 | 1000.0 |
| 20260508180737 | 61 | 29 | 0.0 | 0.0 | 0.00 | 0.00 | 0.00 | 55 | 1000.0 |
| 20260508180236 | 61 | 29 | 0.0 | 0.0 | 0.00 | 0.00 | 0.00 | 54 | 1000.0 |
| 20260508180140 | 61 | 29 | 0.0 | 0.0 | 0.00 | 0.00 | 0.00 | 54 | 1000.0 |
| 20260508175740 | 61 | 29 | 0.0 | 0.0 | 0.00 | 0.00 | 0.00 | 53 | 1000.0 |
| 20260508175251 | 61 | 29 | 0.0 | 0.0 | 0.00 | 0.00 | 0.00 | 53 | 1000.0 |
| 20260508174742 | 61 | 29 | 0.0 | 0.0 | 0.00 | 0.00 | 0.00 | 53 | 1000.0 |
| 20260508174253 | 61 | 29 | 0.0 | 0.0 | 0.00 | 0.00 | 0.00 | 52 | 999.7 |
| 20260508173743 | 61 | 29 | 0.0 | 0.0 | 0.00 | 0.00 | 0.00 | 52 | 999.7 |
| 20260508173244 | 61 | 29 | 0.0 | 0.0 | 0.00 | 0.00 | 0.00 | 51 | 999.7 |
| 20260508172752 | 61 | 29 | 0.0 | 0.0 | 0.00 | 0.00 | 0.00 | 51 | 999.7 |
| 20260508172243 | 62 | 43 | 0.0 | 0.0 | 0.00 | 0.00 | 0.00 | 52 | 999.7 |
| 20260508171235 | 62 | 43 | 0.0 | 0.0 | 0.00 | 0.00 | 0.00 | 51 | 999.5 |
| 20260508170750 | 62 | 24 | 0.0 | 0.0 | 0.00 | 0.00 | 0.00 | 51 | 999.5 |
| 20260508170250 | 62 | 24 | 0.0 | 0.0 | 0.00 | 0.00 | 0.00 | 51 | 999.5 |
| 20260508170135 | 62 | 24 | 0.0 | 0.0 | 0.00 | 0.00 | 0.00 | 51 | 999.5 |
| 20260508165753 | 62 | 24 | 0.0 | 0.0 | 0.00 | 0.00 | 0.00 | 50 | 999.3 |
| 20260508165244 | 62 | 25 | 0.0 | 0.0 | 0.00 | 0.00 | 0.00 | 50 | 999.3 |
| 20260508164738 | 62 | 39 | 0.0 | 0.0 | 0.00 | 0.00 | 0.00 | 51 | 999.3 |
| 20260508164249 | 62 | 35 | 0.0 | 0.0 | 0.00 | 0.00 | 0.00 | 51 | 999.6 |
| 20260508163246 | 62 | 15 | 0.0 | 0.0 | 0.00 | 0.00 | 0.00 | 51 | 999.6 |
| 20260508163130 | 62 | 24 | 0.0 | 0.0 | 0.00 | 0.00 | 0.00 | 51 | 999.6 |
| 20260508162735 | 62 | 353 | 0.0 | 0.0 | 0.00 | 0.00 | 0.00 | 51 | 999.3 |
| 20260508161242 | 62 | 89 | 0.0 | 0.0 | 0.00 | 0.00 | 0.00 | 50 | 999.2 |
| 20260508160739 | 62 | 39 | 0.0 | 0.0 | 0.00 | 0.00 | 0.00 | 50 | 999.2 |
| 20260508160237 | 62 | 55 | 0.0 | 0.0 | 0.00 | 0.00 | 0.00 | 50 | 999.2 |
| 20260508160141 | 62 | 12 | 0.0 | 0.0 | 0.00 | 0.00 | 0.00 | 50 | 999.2 |
| 20260508155743 | 63 | 353 | 0.0 | 0.0 | 0.00 | 0.00 | 0.00 | 50 | 999.2 |
| 20260508154752 | 63 | 32 | 0.0 | 0.0 | 0.00 | 0.00 | 0.00 | 50 | 999.2 |
| 20260508153738 | 63 | 38 | 0.0 | 0.0 | 0.00 | 0.00 | 0.00 | 50 | 999.2 |
| 20260508153239 | 63 | 15 | 0.0 | 0.0 | 0.00 | 0.00 | 0.00 | 50 | 999.2 |
| 20260508153143 | 63 | 55 | 0.0 | 0.0 | 0.00 | 0.00 | 0.00 | 50 | 999.2 |
| 20260508152746 | 63 | 34 | 0.0 | 0.0 | 0.00 | 0.00 | 0.00 | 50 | 999.1 |
| 20260508152237 | 64 | 12 | 0.0 | 0.0 | 0.00 | 0.00 | 0.00 | 50 | 999.2 |
| 20260508151748 | 64 | 1 | 0.0 | 0.0 | 0.00 | 0.00 | 0.00 | 50 | 999.2 |
| 20260508151241 | 64 | 38 | 0.0 | 0.0 | 0.00 | 0.00 | 0.00 | 50 | 999.2 |
| 20260508150739 | 64 | 8 | 0.0 | 0.0 | 0.00 | 0.00 | 0.00 | 50 | 999.2 |
| 20260508150239 | 65 | 43 | 0.0 | 0.0 | 0.00 | 0.00 | 0.00 | 51 | 999.2 |
| 20260508150143 | 65 | 38 | 0.0 | 0.0 | 0.00 | 0.00 | 0.00 | 51 | 999.2 |
| 20260508145243 | 65 | 22 | 0.0 | 0.0 | 0.00 | 0.00 | 0.00 | 51 | 999.0 |
| 20260508144738 | 65 | 52 | 0.0 | 0.0 | 0.00 | 0.00 | 0.00 | 52 | 999.0 |
| 20260508144249 | 65 | 38 | 0.0 | 0.0 | 0.00 | 0.00 | 0.00 | 52 | 998.7 |
| 20260508143739 | 66 | 17 | 0.0 | 0.0 | 0.00 | 0.00 | 0.00 | 52 | 998.7 |
| 20260508143240 | 66 | 32 | 0.0 | 0.0 | 0.00 | 0.00 | 0.00 | 53 | 998.7 |
| 20260508143144 | 66 | 21 | 0.0 | 0.0 | 0.00 | 0.00 | 0.00 | 53 | 998.7 |
| 20260508142743 | 66 | 39 | 0.0 | 0.0 | 0.00 | 0.00 | 0.00 | 53 | 998.4 |
| 20260508142234 | 66 | 12 | 0.0 | 0.0 | 0.00 | 0.00 | 0.00 | 54 | 998.4 |
| 20260508141748 | 66 | 355 | 0.0 | 0.0 | 0.00 | 0.00 | 0.00 | 54 | 998.4 |
| 20260508140738 | 67 | 111 | 0.0 | 0.0 | 0.00 | 0.00 | 0.00 | 55 | 998.2 |
| 20260508140238 | 68 | 55 | 0.0 | 0.0 | 0.00 | 0.00 | 0.00 | 55 | 998.2 |
| 20260508140142 | 68 | 17 | 0.0 | 0.0 | 0.00 | 0.00 | 0.00 | 55 | 998.2 |
| 20260508135744 | 68 | 65 | 0.0 | 0.0 | 0.00 | 0.00 | 0.00 | 55 | 998.1 |
| 20260508134747 | 69 | 32 | 0.0 | 0.0 | 0.00 | 0.00 | 0.00 | 57 | 998.2 |
| 20260508134237 | 69 | 36 | 0.0 | 0.0 | 0.00 | 0.00 | 0.00 | 59 | 998.1 |
| 20260508133743 | 69 | 38 | 0.0 | 0.0 | 0.00 | 0.00 | 0.00 | 61 | 998.1 |
| 20260508133241 | 69 | 337 | 0.0 | 0.0 | 0.00 | 0.00 | 0.00 | 63 | 998.1 |
| 20260508132749 | 69 | 31 | 0.0 | 0.0 | 0.00 | 0.00 | 0.00 | 64 | 997.7 |
| 20260508131736 | 69 | 279 | 0.0 | 0.0 | 0.00 | 0.00 | 0.00 | 64 | 997.7 |
| 20260508131247 | 69 | 278 | 0.0 | 0.0 | 0.00 | 0.00 | 0.00 | 63 | 997.6 |
| 20260508130742 | 69 | 282 | 0.0 | 0.0 | 0.00 | 0.00 | 0.00 | 63 | 997.6 |
| 20260508130244 | 69 | 276 | 0.0 | 0.0 | 0.00 | 0.00 | 0.00 | 62 | 997.6 |
| 20260508130128 | 69 | 275 | 0.0 | 0.0 | 0.00 | 0.00 | 0.00 | 62 | 997.6 |
| 20260508125746 | 69 | 279 | 0.0 | 0.0 | 0.00 | 0.00 | 0.00 | 62 | 997.5 |
| 20260508124738 | 70 | 324 | 0.0 | 0.0 | 0.00 | 0.00 | 0.00 | 62 | 997.5 |
| 20260508124247 | 70 | 306 | 0.0 | 0.0 | 0.00 | 0.00 | 0.00 | 61 | 997.3 |
| 20260508123240 | 70 | 288 | 0.0 | 0.0 | 0.00 | 0.00 | 0.00 | 61 | 997.3 |
| 20260508123143 | 70 | 250 | 0.0 | 0.0 | 0.00 | 0.00 | 0.00 | 62 | 997.3 |
| 20260508122745 | 70 | 268 | 0.0 | 0.0 | 0.00 | 0.00 | 0.00 | 62 | 997.3 |
| 20260508122236 | 70 | 271 | 0.0 | 0.0 | 0.00 | 0.00 | 0.00 | 62 | 997.3 |
| 20260508121749 | 70 | 286 | 0.0 | 0.0 | 0.00 | 0.00 | 0.00 | 62 | 997.3 |
| 20260508121239 | 70 | 296 | 0.0 | 0.0 | 0.00 | 0.00 | 0.00 | 62 | 997.2 |
| 20260508120738 | 70 | 283 | 0.0 | 0.0 | 0.00 | 0.00 | 0.00 | 61 | 997.2 |
| 20260508120252 | 70 | 286 | 0.0 | 0.0 | 0.00 | 0.00 | 0.00 | 61 | 997.2 |
| 20260508120136 | 70 | 331 | 0.0 | 0.0 | 0.00 | 0.00 | 0.00 | 61 | 997.2 |
| 20260508115737 | 71 | 337 | 0.0 | 0.0 | 0.00 | 0.00 | 0.00 | 61 | 997.1 |
| 20260508115246 | 71 | 237 | 0.0 | 0.0 | 0.00 | 0.00 | 0.00 | 61 | 997.1 |
| 20260508114741 | 71 | 240 | 0.0 | 0.0 | 0.00 | 0.00 | 0.00 | 61 | 997.1 |
| 20260508114251 | 71 | 223 | 0.0 | 0.0 | 0.00 | 0.00 | 0.00 | 61 | 997.0 |
| 20260508113242 | 71 | 187 | 0.0 | 0.0 | 0.00 | 0.00 | 0.00 | 60 | 997.0 |
| 20260508113126 | 71 | 189 | 0.0 | 0.0 | 0.00 | 0.00 | 0.00 | 60 | 997.0 |
| 20260508112747 | 71 | 240 | 0.0 | 0.0 | 0.00 | 0.00 | 0.00 | 60 | 996.8 |
| 20260508111754 | 71 | 165 | 0.0 | 0.0 | 0.00 | 0.00 | 0.00 | 61 | 996.8 |
| 20260508111244 | 71 | 168 | 0.0 | 0.0 | 0.00 | 0.00 | 0.00 | 60 | 996.6 |
| 20260508110738 | 71 | 248 | 0.0 | 0.0 | 0.00 | 0.00 | 0.00 | 60 | 996.6 |
| 20260508110238 | 71 | 155 | 0.0 | 0.0 | 0.00 | 0.00 | 0.00 | 61 | 996.6 |
| 20260508110141 | 71 | 209 | 0.0 | 0.0 | 0.00 | 0.00 | 0.00 | 61 | 996.6 |
| 20260508105743 | 71 | 197 | 0.0 | 0.0 | 0.00 | 0.00 | 0.00 | 60 | 996.5 |
| 20260508104749 | 72 | 186 | 0.0 | 0.0 | 0.00 | 0.00 | 0.00 | 61 | 996.5 |
| 20260508103750 | 72 | 186 | 0.0 | 0.0 | 0.00 | 0.00 | 0.00 | 61 | 996.4 |
| 20260508103244 | 72 | 231 | 0.0 | 0.0 | 0.00 | 0.00 | 0.00 | 60 | 996.4 |
| 20260508103132 | 72 | 169 | 0.0 | 0.0 | 0.00 | 0.00 | 0.00 | 60 | 996.4 |
| 20260508102750 | 72 | 182 | 0.0 | 0.0 | 0.00 | 0.00 | 0.00 | 60 | 996.5 |
| 20260508101739 | 72 | 221 | 0.0 | 0.0 | 0.00 | 0.00 | 0.00 | 60 | 996.5 |
| 20260508101248 | 72 | 203 | 0.0 | 0.0 | 0.00 | 0.00 | 0.00 | 60 | 996.2 |
| 20260508100742 | 72 | 152 | 0.0 | 0.0 | 0.00 | 0.00 | 0.00 | 59 | 996.2 |
| 20260508100241 | 72 | 227 | 0.0 | 0.0 | 0.00 | 0.00 | 0.00 | 59 | 996.2 |
| 20260508100145 | 72 | 166 | 0.0 | 0.0 | 0.00 | 0.00 | 0.00 | 59 | 996.2 |
| 20260508095241 | 73 | 124 | 0.0 | 0.0 | 0.00 | 0.00 | 0.00 | 59 | 996.3 |
| 20260508094750 | 73 | 169 | 0.0 | 0.0 | 0.00 | 0.00 | 0.00 | 59 | 996.3 |
| 20260508094241 | 73 | 158 | 0.0 | 0.0 | 0.00 | 0.00 | 0.00 | 58 | 996.3 |
| 20260508093753 | 73 | 187 | 0.0 | 0.0 | 0.00 | 0.00 | 0.00 | 58 | 996.3 |
| 20260508093251 | 73 | 194 | 0.0 | 0.0 | 0.00 | 0.00 | 0.00 | 57 | 996.3 |
| 20260508093135 | 73 | 173 | 0.0 | 0.0 | 0.00 | 0.00 | 0.00 | 57 | 996.3 |
| 20260508092737 | 73 | 172 | 0.0 | 0.0 | 0.00 | 0.00 | 0.00 | 57 | 996.1 |
| 20260508092248 | 74 | 145 | 0.0 | 0.0 | 0.00 | 0.00 | 0.00 | 57 | 996.1 |
| 20260508091740 | 74 | 161 | 0.0 | 0.0 | 0.00 | 0.00 | 0.00 | 57 | 996.1 |
| 20260508091252 | 74 | 163 | 0.0 | 0.0 | 0.00 | 0.00 | 0.00 | 57 | 996.2 |
| 20260508090750 | 74 | 183 | 0.0 | 0.0 | 0.00 | 0.00 | 0.00 | 57 | 996.2 |
| 20260508090247 | 74 | 165 | 0.0 | 0.0 | 0.00 | 0.00 | 0.00 | 56 | 996.2 |
| 20260508090131 | 74 | 179 | 0.0 | 0.0 | 0.00 | 0.00 | 0.00 | 56 | 996.2 |
| 20260508085748 | 74 | 186 | 0.0 | 0.0 | 0.00 | 0.00 | 0.00 | 56 | 996.2 |
| 20260508085236 | 75 | 158 | 0.0 | 0.0 | 0.00 | 0.00 | 0.00 | 56 | 996.2 |
| 20260508084748 | 75 | 228 | 0.0 | 0.0 | 0.00 | 0.00 | 0.00 | 56 | 996.2 |
| 20260508084237 | 75 | 185 | 0.0 | 0.0 | 0.00 | 0.00 | 0.00 | 55 | 996.2 |
| 20260508083747 | 75 | 187 | 0.0 | 0.0 | 0.00 | 0.00 | 0.00 | 55 | 996.2 |
| 20260508083241 | 75 | 156 | 0.0 | 0.0 | 0.00 | 0.00 | 0.00 | 55 | 996.2 |
| 20260508083147 | 75 | 248 | 0.0 | 0.0 | 0.00 | 0.00 | 0.00 | 55 | 996.2 |
| 20260508082749 | 75 | 154 | 0.0 | 0.0 | 0.00 | 0.00 | 0.00 | 56 | 996.2 |
| 20260508082238 | 75 | 176 | 0.0 | 0.0 | 0.00 | 0.00 | 0.00 | 56 | 996.2 |
| 20260508081749 | 75 | 187 | 0.0 | 0.0 | 0.00 | 0.00 | 0.00 | 56 | 996.2 |
| 20260508081239 | 75 | 251 | 0.0 | 0.0 | 0.00 | 0.00 | 0.00 | 56 | 996.5 |
| 20260508080752 | 75 | 155 | 0.0 | 0.0 | 0.00 | 0.00 | 0.00 | 56 | 996.5 |
| 20260508080244 | 75 | 170 | 0.0 | 0.0 | 0.00 | 0.00 | 0.00 | 56 | 996.5 |
| 20260508080132 | 75 | 170 | 0.0 | 0.0 | 0.00 | 0.00 | 0.00 | 56 | 996.5 |
| 20260508075749 | 75 | 176 | 0.0 | 0.0 | 0.00 | 0.00 | 0.00 | 55 | 996.9 |
| 20260508075238 | 76 | 180 | 0.0 | 0.0 | 0.00 | 0.00 | 0.00 | 54 | 996.9 |
| 20260508074754 | 76 | 149 | 0.0 | 0.0 | 0.00 | 0.00 | 0.00 | 54 | 996.9 |
| 20260508074244 | 77 | 125 | 0.0 | 0.0 | 0.00 | 0.00 | 0.00 | 53 | 996.9 |
| 20260508073753 | 77 | 182 | 0.0 | 0.0 | 0.00 | 0.00 | 0.00 | 52 | 996.9 |
| 20260508073256 | 77 | 124 | 0.0 | 0.0 | 0.00 | 0.00 | 0.00 | 52 | 996.9 |
| 20260508072743 | 77 | 186 | 0.0 | 0.0 | 0.00 | 0.00 | 0.00 | 52 | 997.0 |
| 20260508072252 | 77 | 162 | 0.0 | 0.0 | 0.00 | 0.00 | 0.00 | 52 | 997.0 |
| 20260508071745 | 77 | 203 | 0.0 | 0.0 | 0.00 | 0.00 | 0.00 | 52 | 997.0 |
| 20260508071250 | 77 | 162 | 0.0 | 0.0 | 0.00 | 0.00 | 0.00 | 52 | 997.1 |
| 20260508070739 | 77 | 161 | 0.0 | 0.0 | 0.00 | 0.00 | 0.00 | 52 | 997.1 |
| 20260508070251 | 77 | 169 | 0.0 | 0.0 | 0.00 | 0.00 | 0.00 | 53 | 997.1 |
| 20260508070135 | 77 | 211 | 0.0 | 0.0 | 0.00 | 0.00 | 0.00 | 53 | 997.1 |
| 20260508065754 | 77 | 121 | 0.0 | 0.0 | 0.00 | 0.00 | 0.00 | 54 | 997.3 |
| 20260508065243 | 77 | 155 | 0.0 | 0.0 | 0.00 | 0.00 | 0.00 | 53 | 997.3 |
| 20260508064741 | 77 | 166 | 0.0 | 0.0 | 0.00 | 0.00 | 0.00 | 53 | 997.3 |
| 20260508063740 | 78 | 186 | 0.0 | 0.0 | 0.00 | 0.00 | 0.00 | 53 | 997.7 |
| 20260508063246 | 78 | 87 | 0.0 | 0.0 | 0.00 | 0.00 | 0.00 | 53 | 997.7 |
| 20260508063132 | 78 | 186 | 0.0 | 0.0 | 0.00 | 0.00 | 0.00 | 53 | 997.7 |
| 20260508062740 | 78 | 138 | 0.0 | 0.0 | 0.00 | 0.00 | 0.00 | 52 | 997.7 |
| 20260508062249 | 79 | 154 | 0.0 | 0.0 | 0.00 | 0.00 | 0.00 | 52 | 997.8 |
| 20260508061741 | 79 | 142 | 0.0 | 0.0 | 0.00 | 0.00 | 0.00 | 52 | 997.8 |
| 20260508061250 | 79 | 173 | 0.0 | 0.0 | 0.00 | 0.00 | 0.00 | 52 | 997.9 |
| 20260508060739 | 79 | 137 | 0.0 | 0.0 | 0.00 | 0.00 | 0.00 | 52 | 997.9 |
| 20260508060255 | 79 | 161 | 0.0 | 0.0 | 0.00 | 0.00 | 0.00 | 51 | 997.9 |
| 20260508060139 | 79 | 101 | 0.0 | 0.0 | 0.00 | 0.00 | 0.00 | 52 | 997.9 |
| 20260508055740 | 79 | 106 | 0.0 | 0.0 | 0.00 | 0.00 | 0.00 | 52 | 998.0 |
| 20260508054744 | 79 | 60 | 0.0 | 0.0 | 0.00 | 0.00 | 0.00 | 55 | 998.0 |
| 20260508054254 | 79 | 82 | 0.0 | 0.0 | 0.00 | 0.00 | 0.00 | 55 | 998.6 |
| 20260508053742 | 79 | 121 | 0.0 | 0.0 | 0.00 | 0.00 | 0.00 | 55 | 998.6 |
| 20260508053252 | 78 | 101 | 0.0 | 0.0 | 0.00 | 0.00 | 0.00 | 56 | 998.6 |
| 20260508052252 | 78 | 26 | 0.0 | 0.0 | 0.00 | 0.00 | 0.00 | 56 | 999.0 |
| 20260508051746 | 78 | 148 | 0.0 | 0.0 | 0.00 | 0.00 | 0.00 | 56 | 999.0 |
| 20260508050749 | 78 | 341 | 0.0 | 0.0 | 0.00 | 0.00 | 0.00 | 58 | 999.1 |
| 20260508050247 | 78 | 341 | 0.0 | 0.0 | 0.00 | 0.00 | 0.00 | 58 | 999.1 |
| 20260508050132 | 78 | 346 | 0.0 | 0.0 | 0.00 | 0.00 | 0.00 | 58 | 999.1 |
| 20260508045249 | 77 | 350 | 0.0 | 0.0 | 0.00 | 0.00 | 0.00 | 59 | 999.3 |
| 20260508044742 | 77 | 36 | 0.0 | 0.0 | 0.00 | 0.00 | 0.00 | 61 | 999.3 |
| 20260508044252 | 76 | 42 | 0.0 | 0.0 | 0.00 | 0.00 | 0.00 | 61 | 999.6 |
| 20260508043738 | 76 | 41 | 0.0 | 0.0 | 0.00 | 0.00 | 0.00 | 61 | 999.6 |
| 20260508043145 | 76 | 49 | 0.0 | 0.0 | 0.00 | 0.00 | 0.00 | 61 | 999.6 |
| 20260508042741 | 76 | 59 | 0.0 | 0.0 | 0.00 | 0.00 | 0.00 | 61 | 999.9 |
| 20260508042253 | 76 | 55 | 0.0 | 0.0 | 0.00 | 0.00 | 0.00 | 61 | 999.9 |
| 20260508041749 | 76 | 21 | 0.0 | 0.0 | 0.00 | 0.00 | 0.00 | 61 | 999.9 |
| 20260508041237 | 76 | 354 | 0.0 | 0.0 | 0.00 | 0.00 | 0.00 | 61 | 1000.2 |
| 20260508040752 | 76 | 334 | 0.0 | 0.0 | 0.00 | 0.00 | 0.00 | 60 | 1000.2 |
| 20260508040255 | 76 | 26 | 0.0 | 0.0 | 0.00 | 0.00 | 0.00 | 60 | 1000.2 |
| 20260508040139 | 76 | 26 | 0.0 | 0.0 | 0.00 | 0.00 | 0.00 | 60 | 1000.2 |
| 20260508035239 | 76 | 338 | 0.0 | 0.0 | 0.00 | 0.00 | 0.00 | 62 | 1000.4 |
| 20260508034752 | 76 | 336 | 0.0 | 0.0 | 0.00 | 0.00 | 0.00 | 61 | 1000.4 |
| 20260508034241 | 76 | 12 | 0.0 | 0.0 | 0.00 | 0.00 | 0.00 | 61 | 1000.4 |
| 20260508033751 | 76 | 35 | 0.0 | 0.0 | 0.00 | 0.00 | 0.00 | 61 | 1000.4 |
| 20260508033245 | 76 | 358 | 0.0 | 0.0 | 0.00 | 0.00 | 0.00 | 60 | 1000.4 |
| 20260508033132 | 76 | 8 | 0.0 | 0.0 | 0.00 | 0.00 | 0.00 | 60 | 1000.4 |
| 20260508032754 | 76 | 14 | 0.0 | 0.0 | 0.00 | 0.00 | 0.00 | 61 | 1000.9 |
| 20260508032240 | 76 | 331 | 0.0 | 0.0 | 0.00 | 0.00 | 0.00 | 61 | 1000.9 |
| 20260508031736 | 76 | 330 | 0.0 | 0.0 | 0.00 | 0.00 | 0.00 | 62 | 1000.9 |
| 20260508031249 | 76 | 347 | 0.0 | 0.0 | 0.00 | 0.00 | 0.00 | 62 | 1001.2 |
| 20260508030745 | 75 | 324 | 0.0 | 0.0 | 0.00 | 0.00 | 0.00 | 63 | 1001.2 |
| 20260508030240 | 75 | 326 | 0.0 | 0.0 | 0.00 | 0.00 | 0.00 | 62 | 1001.2 |
| 20260508030143 | 75 | 323 | 0.0 | 0.0 | 0.00 | 0.00 | 0.00 | 62 | 1001.2 |
| 20260508025740 | 75 | 326 | 0.0 | 0.0 | 0.00 | 0.00 | 0.00 | 62 | 1001.3 |
| 20260508025251 | 75 | 331 | 0.0 | 0.0 | 0.00 | 0.00 | 0.00 | 63 | 1001.3 |
| 20260508024740 | 75 | 326 | 0.0 | 0.0 | 0.00 | 0.00 | 0.00 | 63 | 1001.3 |
| 20260508024254 | 75 | 326 | 0.0 | 0.0 | 0.00 | 0.00 | 0.00 | 63 | 1001.7 |
| 20260508023741 | 75 | 324 | 0.0 | 0.0 | 0.00 | 0.00 | 0.00 | 64 | 1001.7 |
| 20260508023255 | 75 | 323 | 0.0 | 0.0 | 0.00 | 0.00 | 0.00 | 63 | 1001.7 |
| 20260508023139 | 75 | 323 | 0.0 | 0.0 | 0.00 | 0.00 | 0.00 | 64 | 1001.7 |
| 20260508022736 | 75 | 324 | 0.0 | 0.0 | 0.00 | 0.00 | 0.00 | 63 | 1001.5 |
| 20260508022243 | 75 | 323 | 0.0 | 0.0 | 0.00 | 0.00 | 0.00 | 63 | 1001.5 |
| 20260508021748 | 75 | 324 | 0.0 | 0.0 | 0.00 | 0.00 | 0.00 | 62 | 1001.5 |
| 20260508021238 | 75 | 326 | 0.0 | 0.0 | 0.00 | 0.00 | 0.00 | 62 | 1001.7 |
| 20260508020751 | 75 | 324 | 0.0 | 0.0 | 0.00 | 0.00 | 0.00 | 62 | 1001.7 |
| 20260508020241 | 75 | 319 | 0.0 | 0.0 | 0.00 | 0.00 | 0.00 | 62 | 1001.7 |
| 20260508020129 | 75 | 319 | 0.0 | 0.0 | 0.00 | 0.00 | 0.00 | 62 | 1001.7 |
| 20260508015741 | 75 | 320 | 0.0 | 0.0 | 0.00 | 0.00 | 0.00 | 62 | 1001.7 |
| 20260508015239 | 75 | 330 | 0.0 | 0.0 | 0.00 | 0.00 | 0.00 | 62 | 1001.7 |
| 20260508014751 | 75 | 327 | 0.0 | 0.0 | 0.00 | 0.00 | 0.00 | 63 | 1001.7 |
| 20260508014245 | 74 | 324 | 0.0 | 0.0 | 0.00 | 0.00 | 0.00 | 63 | 1001.9 |
| 20260508013748 | 75 | 320 | 0.0 | 0.0 | 0.00 | 0.00 | 0.00 | 63 | 1001.9 |
| 20260508013257 | 75 | 320 | 0.0 | 0.0 | 0.00 | 0.00 | 0.00 | 63 | 1001.9 |
| 20260508012740 | 74 | 322 | 0.0 | 0.0 | 0.00 | 0.00 | 0.00 | 63 | 1001.8 |
| 20260508012254 | 74 | 320 | 0.0 | 0.0 | 0.00 | 0.00 | 0.00 | 63 | 1001.8 |
| 20260508011253 | 74 | 334 | 0.0 | 0.0 | 0.00 | 0.00 | 0.00 | 63 | 1002.2 |
| 20260508010745 | 75 | 346 | 0.0 | 0.0 | 0.00 | 0.00 | 0.00 | 64 | 1002.2 |
| 20260508010238 | 74 | 338 | 0.0 | 0.0 | 0.00 | 0.00 | 0.00 | 63 | 1002.2 |
| 20260508010142 | 74 | 336 | 0.0 | 0.0 | 0.00 | 0.00 | 0.00 | 63 | 1002.2 |
| 20260508005745 | 74 | 331 | 0.0 | 0.0 | 0.00 | 0.00 | 0.00 | 64 | 1002.3 |
| 20260508004735 | 74 | 334 | 0.0 | 0.0 | 0.00 | 0.00 | 0.00 | 64 | 1002.3 |
| 20260508004247 | 74 | 341 | 0.0 | 0.0 | 0.00 | 0.00 | 0.00 | 64 | 1002.5 |
| 20260508003741 | 74 | 319 | 0.0 | 0.0 | 0.00 | 0.00 | 0.00 | 63 | 1002.5 |
| 20260508003256 | 74 | 19 | 0.0 | 0.0 | 0.00 | 0.00 | 0.00 | 63 | 1002.5 |
| 20260508002740 | 74 | 25 | 0.0 | 0.0 | 0.00 | 0.00 | 0.00 | 63 | 1002.9 |
| 20260508001753 | 74 | 343 | 0.0 | 0.0 | 0.00 | 0.00 | 0.00 | 64 | 1002.9 |
| 20260508001245 | 74 | 344 | 0.0 | 0.0 | 0.00 | 0.00 | 0.00 | 65 | 1003.0 |
| 20260508000744 | 73 | 347 | 0.0 | 0.0 | 0.00 | 0.00 | 0.00 | 65 | 1002.9 |
| 20260508000246 | 73 | 344 | 0.0 | 0.0 | 0.00 | 0.00 | 0.00 | 66 | 1002.9 |
| 20260508000132 | 73 | 341 | 0.0 | 0.0 | 0.00 | 0.00 | 0.00 | 66 | 1002.9 |
| 20260507235751 | 73 | 351 | 0.0 | 0.0 | 0.00 | 0.00 | 0.00 | 67 | 1002.9 |
| 20260507235239 | 72 | 8 | 0.0 | 0.0 | 0.00 | 0.00 | 0.00 | 68 | 1002.9 |
| 20260507234754 | 72 | 351 | 0.0 | 0.0 | 0.00 | 0.00 | 0.00 | 69 | 1002.9 |
| 20260507234244 | 72 | 333 | 0.0 | 0.0 | 0.00 | 0.00 | 0.00 | 70 | 1003.3 |
| 20260507233736 | 72 | 330 | 0.0 | 0.0 | 0.00 | 0.00 | 0.00 | 71 | 1003.3 |
| 20260507233253 | 72 | 331 | 0.0 | 0.0 | 0.00 | 0.00 | 0.00 | 71 | 1003.3 |
| 20260507233137 | 72 | 330 | 0.0 | 0.0 | 0.00 | 0.00 | 0.00 | 71 | 1003.3 |
| 20260507232739 | 71 | 329 | 0.0 | 0.0 | 0.00 | 0.00 | 0.00 | 72 | 1003.0 |
| 20260507232249 | 71 | 329 | 0.0 | 0.0 | 0.00 | 0.00 | 0.00 | 73 | 1003.0 |
| 20260507231743 | 71 | 327 | 0.0 | 0.0 | 0.00 | 0.00 | 0.00 | 73 | 1003.0 |
| 20260507230750 | 70 | 327 | 0.0 | 0.0 | 0.00 | 0.00 | 0.00 | 74 | 1003.0 |
| 20260507230244 | 70 | 331 | 0.0 | 0.0 | 0.00 | 0.00 | 0.00 | 75 | 1003.0 |
| 20260507230132 | 70 | 18 | 0.0 | 0.0 | 0.00 | 0.00 | 0.00 | 75 | 1003.0 |
| 20260507225749 | 69 | 31 | 0.0 | 0.0 | 0.00 | 0.00 | 0.00 | 76 | 1003.4 |
| 20260507225239 | 69 | 42 | 0.0 | 0.0 | 0.00 | 0.00 | 0.00 | 76 | 1003.4 |
| 20260507224754 | 69 | 42 | 0.0 | 0.0 | 0.00 | 0.00 | 0.00 | 76 | 1003.4 |
| 20260507223739 | 69 | 69 | 0.0 | 0.0 | 0.00 | 0.00 | 0.00 | 78 | 1003.5 |
| 20260507223239 | 69 | 69 | 0.0 | 0.0 | 0.00 | 0.00 | 0.00 | 79 | 1003.5 |
| 20260507222749 | 68 | 89 | 0.0 | 0.0 | 0.00 | 0.00 | 0.00 | 80 | 1003.4 |
| 20260507222239 | 68 | 89 | 0.0 | 0.0 | 0.00 | 0.00 | 0.00 | 80 | 1003.4 |
| 20260507221244 | 67 | 154 | 0.0 | 0.0 | 0.00 | 0.00 | 0.00 | 81 | 1003.5 |
| 20260507220741 | 67 | 154 | 0.0 | 0.0 | 0.00 | 0.00 | 0.00 | 82 | 1003.5 |
| 20260507220240 | 67 | 154 | 0.0 | 0.0 | 0.00 | 0.00 | 0.00 | 82 | 1003.5 |
| 20260507220146 | 67 | 154 | 0.0 | 0.0 | 0.00 | 0.00 | 0.00 | 82 | 1003.5 |
| 20260507215748 | 67 | 154 | 0.0 | 0.0 | 0.00 | 0.00 | 0.00 | 82 | 1003.7 |
| 20260507215238 | 67 | 154 | 0.0 | 0.0 | 0.00 | 0.00 | 0.00 | 82 | 1003.7 |
| 20260507214752 | 66 | 154 | 0.0 | 0.0 | 0.00 | 0.00 | 0.00 | 82 | 1003.6 |
| 20260507214240 | 66 | 154 | 0.0 | 0.0 | 0.00 | 0.00 | 0.00 | 82 | 1003.6 |
| 20260507213737 | 66 | 154 | 0.0 | 0.0 | 0.00 | 0.00 | 0.00 | 83 | 1003.6 |
| 20260507212746 | 66 | 154 | 0.0 | 0.0 | 0.00 | 0.00 | 0.00 | 83 | 1003.6 |
| 20260507212236 | 65 | 154 | 0.0 | 0.0 | 0.00 | 0.00 | 0.00 | 83 | 1003.6 |
| 20260507211749 | 65 | 154 | 0.0 | 0.0 | 0.00 | 0.00 | 0.00 | 83 | 1003.6 |
| 20260507211239 | 65 | 154 | 0.0 | 0.0 | 0.00 | 0.00 | 0.00 | 83 | 1003.4 |
| 20260507210739 | 64 | 154 | 0.0 | 0.0 | 0.00 | 0.00 | 0.00 | 83 | 1003.4 |
| 20260507210238 | 64 | 154 | 0.0 | 0.0 | 0.00 | 0.00 | 0.00 | 83 | 1003.4 |
| 20260507210141 | 64 | 154 | 0.0 | 0.0 | 0.00 | 0.00 | 0.00 | 83 | 1003.4 |
| 20260507205743 | 64 | 154 | 0.0 | 0.0 | 0.00 | 0.00 | 0.00 | 83 | 1003.3 |
| 20260507205253 | 64 | 154 | 0.0 | 0.0 | 0.00 | 0.00 | 0.00 | 83 | 1003.3 |
| 20260507204747 | 64 | 154 | 0.0 | 0.0 | 0.00 | 0.00 | 0.00 | 84 | 1003.3 |
| 20260507203737 | 63 | 154 | 0.0 | 0.0 | 0.00 | 0.00 | 0.00 | 84 | 1003.4 |
| 20260507203251 | 63 | 154 | 0.0 | 0.0 | 0.00 | 0.00 | 0.00 | 84 | 1003.4 |
| 20260507203135 | 63 | 154 | 0.0 | 0.0 | 0.00 | 0.00 | 0.00 | 84 | 1003.4 |
| 20260507202249 | 63 | 154 | 0.0 | 0.0 | 0.00 | 0.00 | 0.00 | 84 | 1003.3 |
| 20260507201744 | 63 | 154 | 0.0 | 0.0 | 0.00 | 0.00 | 0.00 | 84 | 1003.3 |
| 20260507200754 | 63 | 154 | 0.0 | 0.0 | 0.00 | 0.00 | 0.00 | 83 | 1003.4 |
| 20260507200235 | 63 | 154 | 0.0 | 0.0 | 0.00 | 0.00 | 0.00 | 84 | 1003.4 |
| 20260507200142 | 63 | 154 | 0.0 | 0.0 | 0.00 | 0.00 | 0.00 | 84 | 1003.4 |
| 20260507195744 | 63 | 154 | 0.0 | 0.0 | 0.00 | 0.00 | 0.00 | 84 | 1003.3 |
| 20260507195239 | 63 | 154 | 0.0 | 0.0 | 0.00 | 0.00 | 0.00 | 84 | 1003.3 |
| 20260507194245 | 63 | 154 | 0.0 | 0.0 | 0.00 | 0.00 | 0.00 | 83 | 1002.9 |
| 20260507193735 | 63 | 154 | 0.0 | 0.0 | 0.00 | 0.00 | 0.00 | 83 | 1002.9 |
| 20260507193237 | 63 | 154 | 0.0 | 0.0 | 0.00 | 0.00 | 0.00 | 83 | 1002.9 |
| 20260507193141 | 63 | 154 | 0.0 | 0.0 | 0.00 | 0.00 | 0.00 | 83 | 1002.9 |
| 20260507192743 | 63 | 154 | 0.0 | 0.0 | 0.00 | 0.00 | 0.00 | 83 | 1002.9 |
| 20260507192254 | 63 | 154 | 0.0 | 0.0 | 0.00 | 0.00 | 0.00 | 83 | 1002.9 |
| 20260507191749 | 63 | 154 | 0.0 | 0.0 | 0.00 | 0.00 | 0.00 | 83 | 1002.9 |
| 20260507191240 | 63 | 154 | 0.0 | 0.0 | 0.00 | 0.00 | 0.00 | 83 | 1003.0 |
| 20260507190254 | 63 | 154 | 0.0 | 0.0 | 0.00 | 0.00 | 0.00 | 83 | 1003.0 |
| 20260507185743 | 63 | 154 | 0.0 | 0.0 | 0.00 | 0.00 | 0.00 | 83 | 1003.0 |
| 20260507185253 | 63 | 154 | 0.0 | 0.0 | 0.00 | 0.00 | 0.00 | 83 | 1003.0 |
| 20260507184749 | 63 | 154 | 0.0 | 0.0 | 0.00 | 0.00 | 0.00 | 83 | 1003.0 |
| 20260507184240 | 63 | 154 | 0.0 | 0.0 | 0.00 | 0.00 | 0.00 | 83 | 1003.3 |